OK1HRA-8 Weather Reports


Display with metric or nautical units.
time (UTC)temp
F
wind
direction
speed
MPH
gust
MPH
rain 1hr
in
rain 24hr
in
rain mn
in
humidity
%
barometer
mb
20260505023623 56 -1 0.0 0.0 0.00 0.00 0.00 7 995.6
20260505023117 56 -1 5.0 6.0 0.00 0.00 0.00 7 995.5
20260505022609 57 -1 4.0 8.0 0.00 0.00 0.00 7 995.6
20260505022103 56 -1 4.0 7.0 0.00 0.00 0.00 7 996.2
20260505021556 57 -1 6.0 12.0 0.00 0.00 0.00 7 995.7
20260505021047 57 -1 5.0 8.0 0.00 0.00 0.00 7 996.1
20260505020541 57 -1 4.0 6.0 0.00 0.00 0.00 7 995.9
20260505020033 57 -1 0.0 0.0 0.00 0.00 0.00 7 995.8
20260505015526 57 -1 0.0 0.0 0.00 0.00 0.00 7 996.1
20260505015020 57 -1 4.0 7.0 0.00 0.00 0.00 7 995.7
20260505014513 57 -1 4.0 8.0 0.00 0.00 0.00 7 995.5
20260505014005 57 -1 0.0 0.0 0.00 0.00 0.00 7 995.3
20260505013458 57 -1 0.0 0.0 0.00 0.00 0.00 6 996.1
20260505012952 57 -1 0.0 0.0 0.00 0.00 0.00 7 995.8
20260505012444 57 -1 0.0 0.0 0.00 0.00 0.00 7 995.6
20260505011938 57 -1 0.0 0.0 0.00 0.00 0.00 7 995.9
20260505011430 57 -1 4.0 6.0 0.00 0.00 0.00 7 996.0
20260505010921 57 -1 3.0 4.0 0.00 0.00 0.00 7 995.2
20260505010413 57 -1 0.0 0.0 0.00 0.00 0.00 6 995.5
20260505005906 58 -1 3.0 4.0 0.00 0.00 0.00 6 995.3
20260505005358 58 -1 3.0 5.0 0.00 0.00 0.00 6 995.6
20260505004851 58 -1 5.0 7.0 0.00 0.00 0.00 6 996.0
20260505004344 59 -1 5.0 7.0 0.00 0.00 0.00 6 995.9
20260505003836 58 -1 0.0 0.0 0.00 0.00 0.00 6 995.8
20260505003328 58 -1 0.0 0.0 0.00 0.00 0.00 6 995.4
20260505002822 58 -1 3.0 4.0 0.00 0.00 0.00 6 995.7
20260505002315 58 -1 4.0 6.0 0.00 0.00 0.00 7 995.6
20260505001806 58 -1 5.0 7.0 0.00 0.00 0.00 7 995.8
20260505001259 58 -1 5.0 7.0 0.00 0.00 0.00 7 995.5
20260505000752 58 -1 4.0 7.0 0.00 0.00 0.00 7 995.5
20260505000245 58 -1 0.0 0.0 0.00 0.00 0.00 7 995.7
20260504235737 58 -1 4.0 6.0 0.00 0.00 0.00 7 996.0
20260504235230 59 -1 6.0 7.0 0.00 0.00 0.00 6 995.7
20260504234723 59 -1 7.0 8.0 0.00 0.00 0.00 6 995.6
20260504234215 59 -1 5.0 7.0 0.00 0.00 0.00 6 995.9
20260504233708 59 -1 5.0 6.0 0.00 0.00 0.00 6 996.1
20260504233201 59 -1 5.0 5.0 0.00 0.00 0.00 6 996.5
20260504232653 59 -1 0.0 0.0 0.00 0.00 0.00 6 997.0
20260504232146 59 -1 4.0 6.0 0.00 0.00 0.00 6 997.4
20260504231639 59 -1 5.0 6.0 0.00 0.00 0.00 7 996.8
20260504231131 59 -1 0.0 0.0 0.00 0.00 0.00 6 996.5
20260504230623 59 -1 5.0 10.0 0.00 0.00 0.00 6 997.1
20260504230116 59 -1 4.0 10.0 0.00 0.00 0.00 6 996.4
20260504225609 59 -1 7.0 12.0 0.00 0.00 0.00 6 996.8
20260504225102 59 -1 7.0 12.0 0.00 0.00 0.00 6 997.1
20260504224554 59 -1 7.0 12.0 0.00 0.00 0.00 5 997.5
20260504224046 59 -1 8.0 16.0 0.00 0.00 0.00 5 996.8
20260504223539 60 -1 8.0 14.0 0.00 0.00 0.00 5 997.4
20260504223032 60 -1 7.0 11.0 0.00 0.00 0.00 5 997.5
20260504222525 61 -1 5.0 9.0 0.00 0.00 0.00 5 997.2
20260504222018 61 -1 6.0 11.0 0.00 0.00 0.00 5 996.9
20260504221511 61 -1 7.0 10.0 0.00 0.00 0.00 5 995.8
20260504221004 61 -1 5.0 9.0 0.00 0.00 0.00 5 995.1
20260504220456 62 -1 6.0 10.0 0.00 0.00 0.00 5 994.9
20260504215949 62 -1 6.0 9.0 0.00 0.00 0.00 5 995.2
20260504215442 62 -1 6.0 11.0 0.00 0.00 0.00 5 995.7
20260504214934 62 -1 4.0 8.0 0.00 0.00 0.00 4 997.6
20260504214427 63 -1 4.0 7.0 0.00 0.00 0.00 4 997.1
20260504213920 63 -1 5.0 8.0 0.00 0.00 0.00 5 996.2
20260504213412 63 -1 5.0 8.0 0.00 0.00 0.00 5 995.1
20260504212904 63 -1 5.0 8.0 0.00 0.00 0.00 5 994.9
20260504212356 63 -1 6.0 8.0 0.00 0.00 0.00 5 995.3
20260504211848 63 -1 6.0 10.0 0.00 0.00 0.00 5 994.9
20260504211341 64 -1 4.0 7.0 0.00 0.00 0.00 5 995.5
20260504210834 64 -1 5.0 9.0 0.00 0.00 0.00 5 994.8
20260504210326 64 -1 4.0 6.0 0.00 0.00 0.00 5 995.3
20260504205819 64 -1 4.0 7.0 0.00 0.00 0.00 5 995.0
20260504205311 64 -1 5.0 9.0 0.00 0.00 0.00 5 994.5
20260504204804 64 -1 5.0 9.0 0.00 0.00 0.00 5 994.7
20260504204256 64 -1 5.0 8.0 0.00 0.00 0.00 5 995.0
20260504203748 64 -1 5.0 7.0 0.00 0.00 0.00 5 995.5
20260504203241 64 -1 5.0 8.0 0.00 0.00 0.00 5 995.2
20260504202733 64 -1 0.0 0.0 0.00 0.00 0.00 5 995.6
20260504202225 64 -1 0.0 0.0 0.00 0.00 0.00 5 996.1
20260504201718 64 -1 0.0 0.0 0.00 0.00 0.00 5 995.8
20260504201210 64 -1 0.0 0.0 0.00 0.00 0.00 5 995.5
20260504200703 65 -1 4.0 8.0 0.00 0.00 0.00 4 996.8
20260504200155 65 -1 5.0 8.0 0.00 0.00 0.00 4 996.7
20260504195647 65 -1 5.0 7.0 0.00 0.00 0.00 4 996.0
20260504195139 65 -1 5.0 7.0 0.00 0.00 0.00 4 996.0
20260504194631 65 -1 5.0 7.0 0.00 0.00 0.00 4 996.1
20260504194123 65 -1 4.0 6.0 0.00 0.00 0.00 4 996.4
20260504193615 65 -1 4.0 8.0 0.00 0.00 0.00 4 996.6
20260504193107 65 -1 5.0 9.0 0.00 0.00 0.00 4 996.8
20260504192559 66 -1 6.0 9.0 0.00 0.00 0.00 4 996.3
20260504192052 65 -1 5.0 9.0 0.00 0.00 0.00 4 996.3
20260504191545 66 -1 6.0 9.0 0.00 0.00 0.00 4 996.3
20260504191037 66 -1 7.0 9.0 0.00 0.00 0.00 4 995.7
20260504190529 66 -1 6.0 9.0 0.00 0.00 0.00 4 995.8
20260504190022 66 -1 5.0 9.0 0.00 0.00 0.00 4 996.0
20260504185514 66 -1 6.0 10.0 0.00 0.00 0.00 4 995.1
20260504185006 66 -1 5.0 9.0 0.00 0.00 0.00 4 995.9
20260504184458 66 -1 5.0 10.0 0.00 0.00 0.00 4 996.1
20260504183951 67 -1 5.0 10.0 0.00 0.00 0.00 4 995.9
20260504183444 67 -1 5.0 8.0 0.00 0.00 0.00 4 996.0
20260504182936 67 -1 5.0 8.0 0.00 0.00 0.00 4 995.7
20260504182428 67 -1 6.0 8.0 0.00 0.00 0.00 4 995.5
20260504181921 67 -1 4.0 8.0 0.00 0.00 0.00 4 995.7
20260504181413 67 -1 5.0 9.0 0.00 0.00 0.00 4 995.0
20260504180906 67 -1 5.0 10.0 0.00 0.00 0.00 4 994.5
20260504180359 68 -1 7.0 12.0 0.00 0.00 0.00 4 995.7
20260504175852 68 -1 4.0 8.0 0.00 0.00 0.00 4 995.6
20260504175345 68 -1 6.0 12.0 0.00 0.00 0.00 4 995.2
20260504174837 68 90 7.0 11.0 0.00 0.00 0.00 4 994.8
20260504174330 68 -1 5.0 8.0 0.00 0.00 0.00 4 995.5
20260504173823 69 -1 4.0 9.0 0.00 0.00 0.00 4 995.7
20260504173315 69 -1 5.0 9.0 0.00 0.00 0.00 4 996.1
20260504172808 69 -1 6.0 10.0 0.00 0.00 0.00 4 996.3
20260504172303 69 90 6.0 10.0 0.00 0.00 0.00 4 995.7
20260504171754 69 -1 7.0 10.0 0.00 0.00 0.00 4 996.0
20260504171247 69 -1 6.0 12.0 0.00 0.00 0.00 3 996.1
20260504170740 70 45 6.0 11.0 0.00 0.00 0.00 3 996.8
20260504170233 70 -1 5.0 9.0 0.00 0.00 0.00 3 996.3
20260504160106 72 -1 5.0 7.0 0.00 0.00 0.00 3 997.5
20260504150951 72 -1 6.0 11.0 0.00 0.00 0.00 3 998.4
20260504150444 72 -1 6.0 10.0 0.00 0.00 0.00 3 997.7
20260504141330 72 -1 8.0 13.0 0.00 0.00 0.00 3 998.2
20260504140822 73 -1 6.0 11.0 0.00 0.00 0.00 3 999.8
20260504140315 73 -1 6.0 12.0 0.00 0.00 0.00 3 1000.1
20260504130654 71 -1 7.0 13.0 0.00 0.00 0.00 3 998.8
20260504130146 73 -1 5.0 8.0 0.00 0.00 0.00 3 1000.8
20260504110400 73 0 0.0 0.0 0.00 0.00 0.00 3 1003.0
20260504100228 68 -1 6.0 10.0 0.00 0.00 0.00 4 1001.3
20260504081957 67 -1 8.0 13.0 0.00 0.00 0.00 4 999.1
20260504081449 67 -1 5.0 9.0 0.00 0.00 0.00 4 1002.7
20260504080941 67 -1 6.0 10.0 0.00 0.00 0.00 4 1002.6
20260504080433 66 -1 6.0 11.0 0.00 0.00 0.00 4 1000.3
20260504070304 62 -1 6.0 9.0 0.00 0.00 0.00 5 1001.1
20260504060135 59 -1 6.0 9.0 0.00 0.00 0.00 6 999.7
20260504050516 50 -1 4.0 6.0 0.00 0.00 0.00 6 998.6
20260504050009 50 -1 4.0 7.0 0.00 0.00 0.00 6 999.5
20260504045502 51 -1 6.0 9.0 0.00 0.00 0.00 6 999.9
20260504044954 54 -1 0.0 0.0 0.00 0.00 0.00 6 996.3
20260504044447 53 -1 0.0 0.0 0.00 0.00 0.00 6 996.6
20260504043939 53 -1 0.0 0.0 0.00 0.00 0.00 6 996.4
20260504043432 54 -1 0.0 0.0 0.00 0.00 0.00 6 997.5
20260504042925 55 -1 0.0 0.0 0.00 0.00 0.00 6 996.8
20260504042417 55 -1 0.0 0.0 0.00 0.00 0.00 6 996.7
20260504041909 54 -1 0.0 0.0 0.00 0.00 0.00 6 995.8
20260504041402 54 -1 0.0 0.0 0.00 0.00 0.00 5 996.9
20260504040855 54 -1 0.0 0.0 0.00 0.00 0.00 5 999.2
20260504040347 55 -1 0.0 0.0 0.00 0.00 0.00 5 999.5
20260504035840 55 -1 3.0 3.0 0.00 0.00 0.00 5 997.2
20260504035333 54 -1 4.0 6.0 0.00 0.00 0.00 5 997.5
20260504034826 54 -1 5.0 8.0 0.00 0.00 0.00 5 997.0
20260504034319 55 -1 4.0 6.0 0.00 0.00 0.00 5 996.5
20260504033812 56 -1 5.0 7.0 0.00 0.00 0.00 5 996.9
20260504033305 56 -1 0.0 0.0 0.00 0.00 0.00 5 996.6
20260504032758 56 -1 0.0 0.0 0.00 0.00 0.00 5 996.8
20260504032251 57 -1 0.0 0.0 0.00 0.00 0.00 5 996.6
20260504031744 56 -1 0.0 0.0 0.00 0.00 0.00 6 995.4
20260504031237 56 -1 0.0 0.0 0.00 0.00 0.00 6 995.5
20260504030729 56 -1 0.0 0.0 0.00 0.00 0.00 6 995.7
20260504030222 56 -1 0.0 0.0 0.00 0.00 0.00 5 995.6
20260504025714 56 -1 0.0 0.0 0.00 0.00 0.00 5 997.0
20260504025207 57 -1 0.0 0.0 0.00 0.00 0.00 5 997.0
20260504024700 56 -1 0.0 0.0 0.00 0.00 0.00 5 995.7
20260504024153 56 -1 0.0 0.0 0.00 0.00 0.00 5 996.2